Location: Esp�s Alto
(42.4476°N, 0.5876°E)
Time: 06:55:05
(UTC+00:00)

Cosmos 2184 Rocket - Pass Details

Date: 22 October 2019
Orbit: 960 x 1001 km, 82.9° (Epoch: 21 November)

Event Time Altitude Azimuth Distance (km) Brightness Sun altitude
Exits shadow 04:04:21 26° 195° (SSW) 1,831 5.2 -25.3°
Maximum altitude 04:08:08 78° 278° (W) 1,004 3.8 -24.7°
Drops below altitude 10° 04:14:27 10° 5° (N) 2,753 6.5 -23.5°
Sets 04:17:00 0° 7° (N) 3,711 7.2 -23.0°
